TimeEDT,TemperatureF,Dew PointF,Humidity,Sea Level PressureIn,VisibilityMPH,Wind Direction,Wind SpeedMPH,Gust SpeedMPH,PrecipitationIn,Events,Conditions,WindDirDegrees,DateUTC
12:56 AM,54.0,46.0,75,30.09,10.0,NNE,8.1,-,N/A,,Overcast,30,2012-10-10 04:56:00
1:56 AM,53.1,46.9,80,30.09,10.0,NNE,8.1,-,N/A,,Overcast,20,2012-10-10 05:56:00
2:12 AM,53.6,48.2,82,30.08,10.0,NNE,8.1,-,N/A,,Overcast,30,2012-10-10 06:12:00
2:56 AM,53.1,48.9,86,30.06,10.0,North,8.1,-,0.00,,Overcast,10,2012-10-10 06:56:00
3:47 AM,53.6,48.2,82,30.05,8.0,NNE,6.9,-,0.00,Rain,Light Rain,20,2012-10-10 07:47:00
3:56 AM,53.1,48.9,86,30.06,8.0,North,5.8,-,0.00,Rain,Light Rain,10,2012-10-10 07:56:00
4:56 AM,51.1,48.9,92,30.04,9.0,NNE,8.1,-,0.00,,Overcast,30,2012-10-10 08:56:00
5:56 AM,52.0,50.0,93,30.02,9.0,North,9.2,-,0.00,,Overcast,10,2012-10-10 09:56:00
6:56 AM,52.0,50.0,93,30.01,5.0,North,6.9,-,0.00,Rain,Light Rain,10,2012-10-10 10:56:00
7:17 AM,53.6,51.8,94,30.00,2.5,NNE,8.1,-,0.00,,Overcast,20,2012-10-10 11:17:00
7:40 AM,53.6,51.8,94,30.00,1.5,NE,10.4,-,0.00,Rain,Light Rain,40,2012-10-10 11:40:00
7:56 AM,54.0,52.0,93,29.99,1.8,NNE,9.2,-,0.00,Rain,Light Rain,30,2012-10-10 11:56:00
8:03 AM,53.6,51.8,94,29.99,2.5,NNE,9.2,-,0.00,Rain,Light Rain,30,2012-10-10 12:03:00
8:12 AM,53.6,51.8,94,29.99,3.0,NNE,9.2,-,0.00,Rain,Light Rain,20,2012-10-10 12:12:00
8:23 AM,55.4,53.6,94,29.99,2.5,NNE,9.2,-,0.00,Rain,Light Rain,30,2012-10-10 12:23:00
8:33 AM,55.4,53.6,94,29.98,2.5,NE,9.2,-,0.00,Rain,Light Rain,40,2012-10-10 12:33:00
8:35 AM,55.4,53.6,94,29.98,3.0,NE,10.4,-,0.00,Rain,Light Rain,40,2012-10-10 12:35:00
8:45 AM,55.4,53.6,94,29.98,8.0,NE,10.4,-,0.00,Rain,Light Rain,40,2012-10-10 12:45:00
8:56 AM,55.9,54.0,93,29.98,10.0,NE,10.4,-,0.00,,Overcast,40,2012-10-10 12:56:00
9:03 AM,57.2,53.6,88,29.98,10.0,NE,10.4,-,N/A,,Overcast,40,2012-10-10 13:03:00
9:23 AM,57.2,55.4,94,29.97,6.0,NE,11.5,-,0.00,Rain,Light Rain,50,2012-10-10 13:23:00
9:41 AM,57.2,55.4,94,29.96,6.0,NE,9.2,-,0.00,,Overcast,50,2012-10-10 13:41:00
9:56 AM,57.9,55.0,90,29.96,9.0,ENE,8.1,-,0.00,,Overcast,60,2012-10-10 13:56:00
10:56 AM,60.1,57.0,90,29.92,3.0,East,10.4,-,0.00,Rain,Light Rain,80,2012-10-10 14:56:00
11:14 AM,60.8,57.2,88,29.90,1.8,East,12.7,-,0.00,Rain,Light Rain,90,2012-10-10 15:14:00
11:27 AM,60.8,57.2,88,29.90,2.0,East,12.7,18.4,0.00,Rain,Light Rain,90,2012-10-10 15:27:00
11:36 AM,60.8,57.2,88,29.89,1.5,East,10.4,-,0.00,Rain,Light Rain,90,2012-10-10 15:36:00
11:56 AM,61.0,57.9,90,29.89,1.5,East,11.5,-,0.00,Rain,Light Rain,100,2012-10-10 15:56:00
12:36 PM,62.6,60.8,94,29.86,3.0,East,16.1,24.2,0.04,,Overcast,100,2012-10-10 16:36:00
12:56 PM,63.0,60.1,90,29.85,4.0,ESE,12.7,23.0,0.04,Rain,Light Rain,110,2012-10-10 16:56:00
1:23 PM,62.6,60.8,94,29.83,2.0,ESE,12.7,-,0.03,Rain,Heavy Rain,120,2012-10-10 17:23:00
1:56 PM,64.0,-9999,N/A,29.81,2.0,ESE,15.0,-,0.05,Rain,Light Rain,110,2012-10-10 17:56:00
2:02 PM,64.4,-9999,N/A,29.81,5.0,ESE,12.7,-,0.00,Rain,Light Rain,110,2012-10-10 18:02:00
2:56 PM,66.0,62.1,87,29.79,10.0,SE,4.6,-,0.00,,Mostly Cloudy,140,2012-10-10 18:56:00
3:56 PM,66.0,62.1,87,29.77,10.0,South,6.9,-,N/A,,Overcast,180,2012-10-10 19:56:00
4:56 PM,66.9,54.0,63,29.76,10.0,West,13.8,18.4,N/A,,Partly Cloudy,260,2012-10-10 20:56:00
5:56 PM,63.0,51.1,65,29.75,10.0,West,10.4,-,N/A,,Clear,260,2012-10-10 21:56:00
6:56 PM,61.0,52.0,72,29.77,10.0,West,5.8,-,N/A,,Partly Cloudy,280,2012-10-10 22:56:00
7:56 PM,59.0,53.1,81,29.78,10.0,WNW,4.6,-,N/A,,Mostly Cloudy,300,2012-10-10 23:56:00
8:56 PM,61.0,50.0,67,29.80,10.0,West,9.2,-,N/A,,Clear,260,2012-10-11 00:56:00
9:56 PM,60.1,48.0,64,29.82,10.0,West,9.2,-,N/A,,Clear,270,2012-10-11 01:56:00
10:56 PM,59.0,48.0,67,29.84,10.0,West,9.2,18.4,N/A,,Scattered Clouds,270,2012-10-11 02:56:00
11:56 PM,55.0,44.1,67,29.87,10.0,NNW,20.7,29.9,N/A,,Partly Cloudy,330,2012-10-11 03:56:00